Regional Weather Roundup
Issued by NWS

Home | Current Version | Previous Version | Graphics & Text | Print | Product List | Glossary On
Versions: 1 2 3 4 5 6 7 8 9 10 11 12 13 14 15 16 17 18 19 20 21 22 23 24 25 26 27 28 29 30 31 32 33 34 35 36 37 38 39 40 41 42 43 44 45 46 47 48 49 50
000
ASUS45 KCYS 261510
RWRWY

WYOMING REGIONAL WEATHER ROUNDUP
NATIONAL WEATHER SERVICE CHEYENNE WY
800 AM MST FRI DEC 26 2014

NOTE:  "FAIR" INDICATES FEW OR NO CLOUDS BELOW 12,000 FEET
WITH NO SIGNIFICANT WEATHER AND/OR OBSTRUCTIONS TO VISIBILITY.

WYZ001-261600-
YELLOWSTONE NATIONAL PARK

CITY           SKY/WX    TMP DP  RH WIND       PRES   REMARKS
LK YELLOWSTONE   N/A     -9 -13  83 CALM      29.89R
W YELLOWSTONE  NOT AVBL

$$
WYZ002>013-054>058-071-098>099-261600-
NORTHERN WYOMING

CITY           SKY/WX    TMP DP  RH WIND       PRES   REMARKS
JACKSON        CLEAR      3   1  92 N12       29.89R WCI -13
CODY           CLOUDY    18  14  86 CALM      29.97S
GREYBULL       CLOUDY    14  12  92 CALM      30.04R
WORLAND        LGT SNOW   9   6  88 CALM      30.02R FOG
SHERIDAN       FAIR       6   3  87 SW5       30.03R WCI  -3
BUFFALO        CLOUDY    15  13  91 CALM      29.99S
GILLETTE       SNOW      17  13  84 CALM      30.02R VSB 1/2
HULETT           N/A    N/A N/A N/A MISG        N/A
NEWCASTLE      CLOUDY    19  14  79 CALM      30.03R

$$
WYZ014>020-022>026-101>103-261600-
CENTRAL WYOMING

CITY           SKY/WX    TMP DP  RH WIND       PRES   REMARKS
BIG PINEY      LGT SNOW   9   5  84 NW3       29.85R FOG
PINEDALE       CLOUDY     7   5  92 E3        29.85R FOG
DUBOIS         NOT AVBL
LANDER         LGT SNOW  14  11  87 NW3       29.94R VSB 1
RIVERTON       LGT SNOW  14  11  87 CALM      29.96R FOG
CASPER         FLURRIES  12   9  87 NE5       29.95S WCI   4
DOUGLAS        LGT SNOW  13  10  88 W3        29.99R FOG

$$
WYZ021-027>030-104>119-261600-
SOUTHERN WYOMING

CITY           SKY/WX    TMP DP  RH WIND       PRES   REMARKS
EVANSTON       LGT SNOW  13  10  88 N5        29.84S FOG     WCI   5
FORT BRIDGER   LGT SNOW  14  13  95 S5        29.88R WCI   6
ROCK SPRINGS   LGT SNOW  13   8  81 NE10      29.85R WCI   0
DIXON          SNOW      17  14  90 CALM      29.79S VSB 1/2
RAWLINS        LGT SNOW  10   6  84 NE13      29.84R FOG     WCI  -5
SARATOGA       LGT SNOW  10   9  92 NW7       29.79R WCI   0
LARAMIE        LGT SNOW   6   3  87 NW3       29.81R VSB 1
CHEYENNE       LGT SNOW  12   7  80 NW6       29.89R WCI   3
TORRINGTON     CLOUDY    16  13  88 CALM      30.01R
PINE BLUFFS    LGT SNOW  14  12  92 N6        29.95S WCI   5

$$


USA.gov is the U.S. government's official web portal to all federal, state and local government web resources and services.